Lapse_Rate
6.7 6.5 6.5 6.4 6.2 6.0 5.9 5.9 5.8 5.7 5.8 5.9 5.8 5.7 5.6 5.5 5.4 5.5 5.7 5.6 5.4 5.2 5.1 5.0 4.8 4.9 4.9 4.7 4.6 4.3 4.0 3.9 4.1 4.8 4.1 3.9 3.4 3.0 2.8 2.3 2.4 2.9 3.7
6.4 6.5 6.4 6.3 6.3 6.3 6.1 5.8 5.7 5.8 6.0 6.0 5.8 5.8 5.7 5.5 5.5 5.6 5.5 5.4 5.2 5.0 5.0 4.9 4.9 4.7 4.7 4.4 4.1 4.0 3.9 3.6 3.6 3.8 3.8 3.4 3.2 3.0 3.2 4.0 4.0 4.4 4.5
6.4 6.4 6.3 6.3 6.3 6.2 6.0 5.7 5.9 6.1 6.1 5.9 5.9 5.8 5.6 5.5 5.6 5.5 5.5 5.1 5.0 4.9 4.8 4.9 4.8 4.7 4.4 4.1 3.9 3.8 3.6 3.6 3.4 3.2 3.0 3.0 3.3 4.0 4.5 4.6 4.7 5.0 4.9
6.5 6.5 6.3 6.2 6.2 6.1 5.9 6.0 6.1 6.1 6.1 5.9 5.9 5.7 5.6 5.5 5.5 5.4 5.2 5.0 5.0 4.9 4.7 4.7 4.5 4.3 4.0 3.8 3.7 3.6 3.3 3.0 2.7 2.5 2.7 3.7 4.1 4.2 4.6 4.7 5.0 5.0 5.0
6.4 6.3 6.1 6.1 6.0 6.2 6.1 6.0 6.1 6.1 6.0 5.9 5.7 5.6 5.6 5.4 5.3 5.1 5.1 5.1 5.0 4.8 4.7 4.4 4.3 4.0 3.8 3.6 3.4 3.1 2.8 2.8 2.7 2.7 3.4 4.0 4.3 4.9 4.8 4.8 4.8 5.1 5.6
6.3 6.1 6.0 6.0 6.2 6.2 6.1 6.2 6.2 6.1 5.8 5.7 5.5 5.6 5.3 5.2 5.1 5.1 4.9 4.9 4.8 4.6 4.5 4.3 4.0 3.8 3.6 3.5 3.2 2.8 2.6 2.7 3.2 3.7 4.2 4.2 4.4 4.3 4.6 4.5 4.6 5.0 6.1
6.1 5.9 6.0 6.2 6.2 6.2 6.2 6.3 6.1 5.9 5.6 5.6 5.5 5.3 5.3 5.2 5.1 4.9 4.8 4.8 4.6 4.5 4.3 4.0 3.8 3.6 3.4 3.2 2.9 2.9 3.6 4.1 3.9 4.0 4.2 4.1 4.2 4.1 4.1 4.7 5.0 4.8 5.3
6.0 6.0 6.0 6.0 6.2 6.4 6.3 6.1 5.8 5.6 5.6 5.4 5.3 5.3 5.2 5.0 4.9 4.8 4.7 4.7 4.6 4.3 4.0 3.7 3.5 3.3 3.1 3.2 3.1 3.7 4.4 4.4 4.6 4.7 4.4 4.3 4.2 4.2 3.9 4.1 4.4 4.7 5.0
5.8 5.8 6.0 6.3 6.3 6.1 6.0 5.7 5.7 5.5 5.4 5.4 5.3 5.1 4.9 4.8 4.8 4.7 4.7 4.6 4.2 3.9 3.8 3.5 3.4 3.2 3.2 3.1 3.5 4.4 4.8 5.0 5.2 4.9 4.2 4.1 4.3 4.1 3.8 4.0 4.1 4.3 4.8
6.0 6.2 6.2 6.1 6.0 5.9 5.8 5.6 5.6 5.4 5.4 5.2 4.9 4.8 4.8 4.7 4.8 4.7 4.3 4.1 4.0 4.0 3.7 3.5 3.1 3.2 3.3 3.8 4.5 4.6 5.0 5.3 5.4 5.2 4.9 4.7 4.4 4.2 3.8 3.6 3.6 4.1 3.9
6.0 6.0 6.0 5.9 5.9 5.7 5.6 5.5 5.5 5.3 5.1 4.9 4.8 4.7 4.7 4.7 4.4 4.2 4.1 4.0 4.0 3.8 3.4 3.3 3.3 3.5 4.2 4.6 4.7 4.9 5.0 5.1 5.0 5.2 5.4 5.1 4.7 4.3 4.1 3.8 3.5 3.6 4.0
5.9 5.9 5.9 5.7 5.6 5.5 5.5 5.4 5.2 5.0 4.9 4.8 4.8 4.7 4.4 4.3 4.2 4.1 4.1 4.1 3.7 3.4 3.4 3.4 3.8 4.7 4.7 4.8 4.9 4.9 5.0 5.0 5.1 5.2 5.1 4.9 4.8 4.5 4.2 4.1 4.0 4.0 3.8
5.8 5.7 5.5 5.5 5.5 5.4 5.2 5.1 5.0 4.8 4.7 4.8 4.8 4.6 4.4 4.2 4.3 4.3 4.1 3.8 3.7 3.7 3.6 4.0 4.7 4.9 4.9 5.0 4.8 4.8 4.9 4.9 4.9 5.0 4.9 4.8 4.6 4.5 4.5 4.6 4.4 4.5 4.2
5.5 5.4 5.4 5.4 5.3 5.1 5.1 4.9 4.7 4.8 4.9 4.7 4.5 4.4 4.4 4.4 4.3 4.1 4.0 3.8 3.6 3.7 4.2 4.8 5.0 5.1 4.8 4.7 4.7 4.6 4.6 4.7 4.9 4.9 4.8 4.5 4.4 4.5 4.5 4.6 4.9 4.9 5.1
5.3 5.3 5.3 5.2 5.1 5.0 4.8 4.8 4.9 4.8 4.7 4.6 4.3 4.3 4.3 4.1 4.0 3.8 3.5 3.2 3.3 4.1 4.7 5.1 5.2 5.2 5.1 4.9 4.7 4.5 4.7 4.8 4.8 4.8 4.9 4.8 4.7 4.8 4.9 4.9 4.8 5.0 4.9
5.3 5.3 5.2 5.1 4.9 4.9 4.9 4.8 4.7 4.5 4.1 4.0 4.0 3.9 3.8 3.7 3.6 3.4 3.5 3.7 4.3 4.7 5.2 5.3 5.2 5.0 4.9 5.0 5.0 5.1 4.9 5.1 5.2 5.3 5.1 5.0 5.1 5.3 5.4 5.2 5.0 5.0 5.2
5.3 5.2 5.1 5.0 4.9 4.9 4.8 4.6 4.3 4.0 4.0 3.9 3.8 3.8 3.7 3.5 3.3 3.5 4.0 4.6 4.6 4.9 5.1 5.0 5.0 5.0 5.0 4.9 5.0 5.1 5.2 5.3 5.4 5.4 5.3 5.3 5.4 5.5 5.3 5.3 5.3 5.4 5.3
5.1 5.1 5.0 5.0 4.9 4.7 4.6 4.5 4.4 4.3 4.1 4.0 3.8 3.7 3.5 3.5 3.6 4.1 4.6 4.7 4.9 4.8 4.6 4.8 5.0 5.0 5.0 5.0 5.1 5.3 5.3 5.3 5.2 5.3 5.3 5.3 5.3 5.5 5.6 5.6 5.6 5.6 5.5
5.1 4.9 4.9 4.8 4.7 4.7 4.5 4.4 4.2 3.8 3.7 3.7 3.6 3.3 3.3 3.7 4.0 4.4 4.5 4.7 4.9 4.8 4.8 4.8 5.0 5.0 5.1 5.2 5.2 5.2 5.2 5.2 5.3 5.4 5.5 5.5 5.5 5.6 5.6 5.6 5.5 5.4 5.3
5.0 4.9 4.8 4.7 4.7 4.5 4.3 4.0 3.7 3.6 3.6 3.4 3.3 3.3 3.7 4.2 4.5 4.7 4.7 4.8 4.7 4.6 4.6 4.8 4.9 5.1 5.2 5.3 5.3 5.3 5.3 5.4 5.6 5.7 5.7 5.6 5.5 5.5 5.6 5.5 5.4 5.3 5.4
5.0 4.9 4.8 4.7 4.5 4.2 4.0 3.7 3.6 3.4 3.4 3.3 3.2 3.4 3.8 4.3 4.5 4.6 4.7 4.6 4.6 4.6 4.5 4.6 4.7 4.9 5.1 5.2 5.3 5.3 5.4 5.6 5.8 6.0 6.0 6.0 5.9 6.0 5.8 5.7 5.5 5.3 5.4
4.9 4.8 4.6 4.4 4.2 3.9 3.7 3.5 3.4 3.3 3.1 3.1 3.4 3.8 4.2 4.4 4.5 4.6 4.5 4.4 4.4 4.5 4.6 4.6 4.7 4.8 5.0 5.2 5.3 5.5 5.6 5.8 6.1 6.2 6.2 6.2 6.4 6.3 6.2 5.9 5.7 5.6 5.5
4.7 4.6 4.5 4.2 4.0 3.7 3.4 3.3 3.2 3.0 3.0 3.2 3.8 4.2 4.6 4.7 4.7 4.6 4.6 4.5 4.4 4.5 4.6 4.6 4.7 4.7 4.8 5.0 5.2 5.3 5.6 5.8 6.0 6.2 6.6 6.8 6.8 6.6 6.5 6.3 6.0 5.7 5.5
4.6 4.5 4.2 4.0 3.8 3.6 3.4 3.1 3.1 2.9 3.0 3.4 3.8 4.1 4.5 4.7 4.6 4.6 4.6 4.6 4.6 4.6 4.7 4.7 4.7 4.8 4.9 5.0 5.2 5.5 5.7 5.8 6.0 6.5 6.9 6.8 6.6 6.6 6.6 6.5 6.2 5.8 5.5
4.5 4.2 4.0 3.9 3.7 3.4 3.2 3.1 3.0 2.9 3.0 3.3 3.5 3.8 4.2 4.4 4.5 4.6 4.7 4.7 4.8 4.8 4.7 4.8 5.0 5.0 5.1 5.2 5.3 5.5 5.6 5.8 5.9 6.4 6.6 6.7 6.7 6.7 6.6 6.7 6.6 6.0 5.6
4.2 4.1 4.0 3.8 3.5 3.4 3.4 3.2 3.1 3.1 3.3 3.3 3.4 3.7 4.0 4.3 4.6 4.8 4.8 4.9 4.9 4.9 5.0 5.2 5.1 5.3 5.4 5.5 5.5 5.7 5.8 6.0 6.3 6.6 6.4 6.5 6.7 6.8 6.8 6.8 6.6 6.2 5.7
Wind_Speed
12 12 13 12 13 12 11 10 10 10 9 8 6 6 4 3 2 2 2 2 4 5 5 5 7 8 7 7 7 8 9 10 14 16 13 15 18 17 17 21 22 21 22
12 13 13 13 13 12 11 10 10 10 8 7 6 5 3 2 2 2 3 4 4 6 6 7 9 7 10 9 7 10 10 12 12 19 16 14 17 18 18 17 12 20 20
13 13 13 13 13 12 12 10 9 9 8 7 5 4 3 2 2 3 4 5 4 4 5 8 9 10 10 8 9 10 10 10 11 12 15 13 13 12 13 15 16 16 17
13 13 12 12 12 12 11 10 9 8 8 6 5 3 2 3 3 5 5 5 4 4 6 7 9 9 10 11 11 12 11 12 13 12 12 11 12 14 12 13 13 12 12
13 12 11 11 11 12 11 10 9 8 7 5 4 3 3 4 4 7 6 5 5 5 7 8 8 11 18 16 10 13 15 12 10 8 11 12 12 13 14 12 13 13 14
13 12 11 11 11 10 10 10 9 7 6 4 4 3 4 4 10 11 11 8 6 7 9 10 10 13 14 19 20 23 19 13 12 10 12 14 16 13 13 11 13 14 16
13 12 11 11 11 10 9 9 7 6 4 3 3 4 5 5 10 12 14 8 7 8 10 11 11 9 14 13 19 22 16 19 20 15 17 16 16 15 13 15 15 14 15
11 11 11 11 11 9 9 8 6 4 3 3 4 4 5 5 11 14 15 9 8 9 11 12 12 13 13 15 15 10 13 14 14 12 15 15 14 15 15 14 16 16 14
11 11 10 10 10 9 8 7 4 3 3 3 3 5 6 6 12 14 14 9 9 11 11 12 11 13 18 25 14 14 16 15 17 22 22 23 27 25 19 11 10 11 13
10 10 10 9 9 8 7 5 3 3 2 3 5 4 6 7 12 15 13 8 10 9 11 10 13 16 24 23 16 14 13 15 14 13 15 16 17 17 20 12 10 11 11
10 10 9 9 9 7 5 3 3 3 3 4 5 5 6 7 9 15 16 9 9 9 9 9 10 21 23 25 23 13 15 16 17 13 12 11 12 12 11 11 12 10 11
10 10 9 8 6 5 6 4 3 3 3 5 6 6 5 7 11 13 16 17 17 10 10 9 11 22 24 22 17 20 22 19 10 10 11 12 11 11 10 12 14 13 11
10 10 8 7 6 5 4 3 2 3 4 5 5 6 8 8 8 15 17 18 17 11 9 16 21 21 20 15 18 20 19 9 10 10 11 10 9 11 13 12 13 14 14
10 8 6 6 5 4 2 3 3 3 3 4 6 7 7 7 7 8 8 8 12 11 13 9 14 15 15 15 13 11 9 9 10 10 11 11 11 10 10 10 10 11 12
8 6 6 4 3 3 3 1 3 2 3 6 6 6 7 8 8 15 14 9 9 12 14 8 8 9 10 9 10 11 10 10 10 10 10 11 11 10 11 10 10 11 10
7 5 4 3 2 2 2 2 5 8 9 10 11 9 8 12 17 18 19 19 20 19 9 8 9 9 10 10 11 11 11 13 10 10 10 9 10 10 11 11 9 9 10
7 5 3 3 2 2 3 4 6 6 8 9 11 14 14 15 17 18 18 20 17 14 7 7 8 9 10 10 9 10 11 10 11 9 10 10 10 10 13 10 10 9 10
5 8 3 2 2 2 3 3 3 5 7 8 11 13 15 17 17 17 19 14 9 8 7 8 9 9 9 9 9 10 10 10 10 10 10 10 10 9 10 10 10 10 10
4 3 2 2 2 3 2 3 3 5 6 7 7 10 12 16 17 17 15 7 8 8 8 9 9 9 9 9 10 10 10 10 11 10 10 9 9 8 10 10 10 17 16
3 6 4 2 2 2 3 4 4 5 6 6 7 7 8 11 8 9 8 8 8 8 9 9 9 9 9 9 10 10 10 11 10 10 10 10 9 8 9 10 10 10 10
2 2 5 3 2 3 4 3 5 5 6 6 7 8 17 9 8 9 9 8 8 9 9 9 9 9 9 9 10 10 10 11 10 10 10 10 9 9 9 9 10 9 9
2 2 2 2 2 4 4 4 5 6 6 7 8 9 17 8 8 9 9 9 9 9 8 9 9 9 9 9 10 10 11 11 11 10 10 11 10 9 9 9 9 8 8
3 3 2 2 3 6 5 5 5 6 7 8 8 8 9 9 9 9 9 9 9 9 7 9 9 10 9 9 10 9 10 11 11 10 11 12 11 10 9 8 7 7 7
2 2 2 3 4 4 5 6 6 9 8 8 8 9 9 9 10 10 9 8 8 9 9 8 9 13 12 12 13 15 13 12 12 12 16 10 7 9 7 7 7 7 6
2 2 3 3 4 5 6 6 7 7 8 8 9 9 9 9 9 8 8 8 9 9 11 9 11 13 15 18 17 20 22 29 22 20 7 7 9 11 8 5 6 5 5
2 2 3 4 4 5 5 6 7 7 8 8 8 8 9 8 8 8 8 9 8 9 12 9 13 19 21 19 20 24 30 29 21 19 7 6 7 7 6 6 7 4 5
Wind_Direction
132 129 127 127 128 130 129 129 126 124 124 119 118 109 98 83 45 10 351 327 315 311 314 320 314 313 303 299 286 275 274 278 282 294 298 300 301 296 297 299 294 290 288
126 125 125 126 128 125 127 126 127 119 113 115 111 104 95 65 24 349 320 303 307 323 333 330 322 323 312 304 292 286 281 281 280 288 294 298 297 305 302 302 296 293 290
124 125 127 129 127 126 125 124 119 117 112 107 105 96 70 18 348 309 284 296 304 316 329 327 320 316 309 306 298 289 283 279 279 280 291 295 305 307 305 299 299 297 293
125 128 128 130 128 125 122 120 117 114 111 106 92 81 45 350 313 304 296 293 295 305 322 318 311 306 303 300 293 287 286 293 287 283 288 303 305 306 301 305 302 296 298
123 123 124 123 121 119 117 115 111 104 100 98 92 58 6 329 321 319 309 309 304 302 308 305 299 298 300 298 299 303 298 294 289 306 302 304 303 310 305 304 298 302 301
120 121 122 123 120 116 117 114 107 103 96 86 62 25 353 333 323 326 329 323 309 298 303 304 300 299 293 292 305 301 298 306 310 306 302 301 303 305 301 302 304 305 306
118 123 124 123 117 116 117 112 107 98 96 75 31 5 343 324 328 332 328 321 312 305 305 303 302 298 301 296 292 294 298 302 306 303 303 299 297 297 298 302 301 299 296
118 120 122 120 118 117 113 108 103 90 76 42 15 343 331 336 335 332 326 321 308 303 296 299 297 294 295 296 304 305 315 304 304 301 294 293 291 301 299 301 300 296 291
121 124 125 122 121 119 109 103 98 83 51 20 336 353 341 326 334 330 328 319 307 304 301 295 289 299 307 312 322 315 311 310 302 300 297 302 301 302 305 302 299 303 300
122 120 120 120 115 108 110 105 82 66 28 360 357 345 325 329 329 331 326 315 315 311 305 296 297 313 315 322 321 320 316 307 306 308 310 306 306 304 305 303 301 295 297
114 111 106 104 106 110 102 82 76 55 22 358 341 343 332 330 326 327 329 325 316 308 317 318 318 315 322 325 324 322 303 311 320 316 309 308 308 309 309 306 299 290 292
110 107 106 105 103 96 92 82 69 35 13 358 341 336 332 319 327 331 328 324 319 325 322 319 311 324 326 323 323 311 319 323 316 311 310 309 312 306 303 303 297 288 278
107 108 105 96 89 88 86 80 58 25 8 348 339 333 333 335 326 317 316 317 325 325 320 316 329 325 324 323 317 322 323 319 315 311 310 306 303 301 300 299 300 296 289
109 108 105 100 90 78 78 71 34 4 343 339 338 332 324 319 317 313 311 318 320 323 320 328 324 324 321 317 321 321 320 317 313 310 307 305 305 305 304 308 306 309 309
107 104 95 90 90 67 46 53 2 323 310 336 330 318 318 320 321 325 326 325 328 329 332 328 325 327 326 325 324 321 320 318 314 311 308 306 305 308 307 310 306 307 305
110 109 109 93 70 61 35 355 3 360 348 340 333 328 321 318 323 326 324 336 333 331 334 326 325 325 322 322 319 315 316 315 312 309 304 299 301 304 305 308 306 304 305
109 111 96 95 74 33 17 9 347 345 336 335 338 334 329 327 330 321 339 331 334 337 331 325 322 320 316 311 307 308 308 309 306 299 298 298 299 303 309 304 306 305 305
104 107 101 87 52 31 16 356 334 326 329 329 335 338 334 333 327 335 337 337 331 339 328 322 317 313 309 305 305 306 307 307 306 301 299 301 300 297 303 303 303 304 303
107 98 89 63 28 15 358 331 323 325 323 318 324 328 330 323 322 334 337 332 324 323 322 317 312 306 302 302 302 303 303 303 303 304 298 297 299 300 299 298 297 305 312
71 64 58 38 13 355 336 328 329 329 322 321 319 317 317 312 331 330 330 323 318 316 315 311 308 303 301 299 302 304 305 303 304 302 300 299 298 295 293 295 298 302 305
79 41 31 29 5 339 329 327 326 322 318 312 307 310 320 330 323 317 316 315 315 313 311 308 306 300 298 299 300 301 300 299 298 298 297 298 297 296 295 292 295 299 299
72 40 23 4 343 334 324 336 326 317 311 307 309 312 323 326 314 311 311 312 312 310 306 303 298 295 295 295 298 298 297 297 297 297 296 297 298 295 293 294 299 301 313
57 32 11 350 340 335 340 326 316 314 311 312 314 316 321 318 313 309 310 312 310 307 303 299 295 296 296 296 294 288 287 290 292 292 291 293 294 291 290 291 309 325 329
56 20 352 344 339 344 324 318 321 321 319 318 317 317 315 311 310 309 309 307 305 303 299 295 294 292 295 299 299 297 291 289 287 281 281 282 297 304 305 310 327 324 333
42 1 348 343 330 325 322 323 319 318 317 319 317 315 311 309 306 306 307 306 303 301 301 301 296 295 297 301 299 299 299 306 311 309 304 309 305 308 313 322 336 327 338
7 349 334 325 321 324 322 318 315 316 316 313 305 305 304 302 304 306 304 303 302 302 301 297 298 300 301 304 302 308 314 317 318 322 336 316 313 318 333 350 343 340 354